Location: Bagnolo San Vito
(45.0833°N, 10.8833°E)
Time: 00:22:33
(UTC+00:00)

SJ 16-02 - Pass Details

Date: 03 March 2021
Orbit: 605 x 617 km, 75.0° (Epoch: 17 April)

Event Time Altitude Azimuth Distance (km) Brightness Sun altitude
Rises 19:34:56 0° 343° (NNW) 2,883 5.3 -26.6°
Reaches altitude 10° 19:37:13 10° 347° (NNW) 1,976 4.3 -27.0°
Enters shadow 19:39:28 29° 357° (N) 1,133 2.8 -27.4°
